Location: Unspecified
(40.9833°N, 0.0000°E)
Time: 02:41:10
(UTC+00:00)

ISS - Visible Passes

Search period start: 23 October 2019 00:00
Search period end: 02 November 2019 00:00
Orbit: 411 x 421 km, 51.6° (Epoch: 23 October)

Date Brightness Start Highest point End Pass type
(mag) Time Alt. Az. Time Alt. Az. Time Alt. Az.
23 Oct -1.5 05:34:32 10° SSW 05:37:24 26° SE 05:40:15 10° ENE visible
24 Oct -0.8 04:46:59 10° SSE 04:49:01 15° SE 04:51:02 10° E visible
25 Oct -3.6 05:33:29 10° SW 05:36:50 76° SE 05:40:12 10° ENE visible
26 Oct -2.6 04:46:50 25° SSW 04:48:20 41° SE 04:51:32 10° ENE visible
27 Oct -1.2 04:00:54 20° ESE 04:00:54 20° ESE 04:02:38 10° ENE visible
27 Oct -3.2 05:33:50 14° W 05:36:26 42° NNW 05:39:41 10° NE visible
28 Oct -3.9 04:47:43 68° NW 04:47:48 68° NW 04:51:09 10° NE visible
29 Oct -1.1 04:01:27 19° ENE 04:01:27 19° ENE 04:02:33 10° ENE visible
29 Oct -2.2 05:34:21 15° WNW 05:36:12 22° NNW 05:38:57 10° NNE visible
30 Oct -2.4 04:47:58 29° N 04:47:58 29° N 04:50:28 10° NE visible
31 Oct -0.7 04:01:29 13° NE 04:01:29 13° NE 04:01:58 10° NE visible
31 Oct -1.6 05:34:23 12° NW 05:36:05 16° N 05:38:12 10° NNE visible
01 Nov -1.7 04:47:50 18° N 04:47:50 18° N 04:49:40 10° NNE visible
